Location: Ottawa
(45.4167°N, 75.7000°W)
Time: 12:18:20
(UTC-04:00)

ISS - Pass Details

Date: 08 October 2017
Orbit: 401 x 408 km, 51.6° (Epoch: 20 October)

Event Time Altitude Azimuth Distance (km) Brightness Sun altitude
Rises 19:48:42 0° 298° (WNW) 2,328 1.4 -14.7°
Reaches altitude 10° 19:50:53 10° 307° (NW) 1,468 -0.1 -15.1°
Maximum altitude 19:53:58 36° 16° (NNE) 664 -2.9 -15.6°
Enters shadow 19:54:52 30° 53° (NE) 766 -2.8 -15.8°
